timestamp,wind_dir_avg,wind_spd_avg,wind_spd_max_dir,wind_spd_gust,battery_voltage,lat,long
2023-10-29 00:04:00+00:00,214.0,9.19,220.0,10.24,12.41,47.59359,-54.27349
2023-10-29 00:14:01+00:00,215.0,9.45,215.0,10.45,12.33,47.59359,-54.27349
2023-10-29 00:24:01+00:00,217.0,8.69,217.0,9.96,12.33,47.59359,-54.27349
2023-10-29 00:34:01+00:00,213.0,9.2,216.0,10.14,12.33,47.59359,-54.27349
2023-10-29 00:44:01+00:00,216.0,8.76,216.0,10.54,12.33,47.59359,-54.27349
2023-10-29 00:54:01+00:00,212.0,9.6,213.0,9.61,12.33,47.59359,-54.27349
2023-10-29 01:04:01+00:00,315.0,0.01,214.0,0.0,12.33,47.59359,-54.27349
2023-10-29 01:14:01+00:00,215.0,8.7,217.0,9.29,12.33,47.59359,-54.27349
2023-10-29 01:24:01+00:00,218.0,8.96,225.0,9.86,12.33,47.59359,-54.27349
2023-10-29 01:34:01+00:00,214.0,9.19,220.0,9.63,12.33,47.59359,-54.27349
2023-10-29 01:44:01+00:00,219.0,8.58,226.0,10.14,12.33,47.59359,-54.27349
2023-10-29 01:54:01+00:00,315.0,0.01,225.0,0.0,12.33,47.59359,-54.27349
2023-10-29 02:04:01+00:00,315.0,0.01,225.0,0.0,12.33,47.59359,-54.27349
2023-10-29 02:14:00+00:00,228.0,7.04,228.0,7.14,12.25,47.59359,-54.27349
2023-10-29 02:24:00+00:00,216.0,8.42,225.0,9.33,12.25,47.59359,-54.27349
2023-10-29 02:34:00+00:00,221.0,8.28,221.0,9.46,12.25,47.59359,-54.27349
2023-10-29 02:44:00+00:00,218.0,9.1,225.0,10.7,12.25,47.59359,-54.27349
2023-10-29 02:54:00+00:00,219.0,9.32,230.0,11.22,12.25,47.59359,-54.27349
2023-10-29 03:04:00+00:00,219.0,8.91,225.0,9.7,12.25,47.59359,-54.27349
2023-10-29 03:14:01+00:00,214.0,9.34,219.0,10.83,12.25,47.59359,-54.27349
2023-10-29 03:24:01+00:00,210.0,8.55,212.0,9.52,12.25,47.59359,-54.27349
2023-10-29 03:34:01+00:00,315.0,0.01,209.0,0.0,12.25,47.59359,-54.27349
2023-10-29 03:44:01+00:00,217.0,8.33,227.0,9.16,12.25,47.59359,-54.27349
2023-10-29 03:54:01+00:00,219.0,8.29,224.0,9.49,12.25,47.59359,-54.27349
2023-10-29 04:04:01+00:00,315.0,0.01,214.0,0.0,12.25,47.59359,-54.27349
2023-10-29 04:14:00+00:00,226.0,5.49,235.0,7.34,12.25,47.59359,-54.27349
2023-10-29 04:24:00+00:00,232.0,6.82,239.0,10.48,12.25,47.59359,-54.27349
2023-10-29 04:34:00+00:00,235.0,9.44,242.0,11.29,12.25,47.59359,-54.27349
2023-10-29 04:44:00+00:00,231.0,9.13,238.0,11.71,12.25,47.59359,-54.27349
2023-10-29 04:54:00+00:00,238.0,9.14,241.0,10.89,12.25,47.59359,-54.27349
2023-10-29 05:04:00+00:00,233.0,9.09,236.0,11.13,12.25,47.59359,-54.27349
2023-10-29 05:14:01+00:00,232.0,8.48,228.0,10.89,12.17,47.59359,-54.27349
2023-10-29 05:24:01+00:00,240.0,9.51,244.0,11.04,12.17,47.59359,-54.27349
2023-10-29 05:34:01+00:00,236.0,10.55,240.0,12.07,12.17,47.59359,-54.27349
2023-10-29 05:44:01+00:00,235.0,9.74,241.0,11.69,12.17,47.59359,-54.27349
2023-10-29 05:54:01+00:00,218.0,7.29,228.0,9.07,12.17,47.59359,-54.27349
2023-10-29 06:04:01+00:00,229.0,9.29,230.0,11.35,12.17,47.59359,-54.27349
2023-10-29 06:14:00+00:00,221.0,7.96,227.0,10.62,12.17,47.59359,-54.27349
2023-10-29 06:24:00+00:00,227.0,9.09,232.0,11.54,12.17,47.59359,-54.27349
2023-10-29 06:34:00+00:00,235.0,10.61,231.0,12.03,12.17,47.59359,-54.27349
2023-10-29 06:44:00+00:00,231.0,10.37,232.0,11.84,12.17,47.59359,-54.27349
2023-10-29 06:54:00+00:00,235.0,10.26,234.0,12.5,12.17,47.59359,-54.27349
2023-10-29 07:04:00+00:00,240.0,10.65,238.0,11.95,12.17,47.59359,-54.27349
2023-10-29 07:14:00+00:00,243.0,10.0,244.0,11.58,12.17,47.59359,-54.27349
2023-10-29 07:24:00+00:00,242.0,10.98,240.0,12.16,12.17,47.59359,-54.27349
2023-10-29 07:34:00+00:00,249.0,9.77,251.0,11.4,12.17,47.59359,-54.27349
2023-10-29 07:44:00+00:00,244.0,6.1,257.0,9.66,12.17,47.59359,-54.27349
2023-10-29 07:54:00+00:00,228.0,5.13,222.0,6.41,12.17,47.59359,-54.27349
2023-10-29 08:04:00+00:00,228.0,4.84,229.0,5.83,12.17,47.59359,-54.27349
2023-10-29 08:14:00+00:00,221.0,4.14,230.0,5.03,12.17,47.59359,-54.27349
2023-10-29 08:24:00+00:00,265.0,8.82,263.0,10.51,12.17,47.59359,-54.27349
2023-10-29 08:34:00+00:00,273.0,8.06,272.0,9.71,12.17,47.59359,-54.27349
2023-10-29 08:44:00+00:00,286.0,8.32,286.0,9.6,12.17,47.59359,-54.27349
2023-10-29 08:54:00+00:00,291.0,7.52,284.0,8.9,12.17,47.59359,-54.27349
2023-10-29 09:04:00+00:00,299.0,9.21,296.0,10.54,12.17,47.59359,-54.27349
2023-10-29 09:14:00+00:00,300.0,8.64,301.0,10.21,12.17,47.59359,-54.27349
2023-10-29 09:24:00+00:00,302.0,6.19,315.0,7.02,12.17,47.59359,-54.27349
2023-10-29 09:34:00+00:00,292.0,7.08,291.0,9.01,12.17,47.59359,-54.27349
2023-10-29 09:44:00+00:00,294.0,7.45,289.0,10.18,12.17,47.59359,-54.27349
2023-10-29 09:54:00+00:00,287.0,10.05,287.0,11.37,12.17,47.59359,-54.27349
2023-10-29 10:04:00+00:00,289.0,7.42,292.0,8.72,12.17,47.59359,-54.27349
2023-10-29 10:14:01+00:00,306.0,9.78,312.0,11.43,12.17,47.59359,-54.27349
2023-10-29 10:24:01+00:00,320.0,8.44,316.0,12.17,12.17,47.59359,-54.27349
2023-10-29 10:34:01+00:00,313.0,5.18,319.0,6.2,12.17,47.59359,-54.27349
2023-10-29 10:44:01+00:00,304.0,6.47,306.0,8.56,12.17,47.59359,-54.27349
2023-10-29 10:54:01+00:00,304.0,7.53,306.0,9.44,12.17,47.59359,-54.27349
2023-10-29 11:04:01+00:00,314.0,7.26,320.0,8.74,12.17,47.59359,-54.27349
2023-10-29 11:14:00+00:00,306.0,6.45,300.0,7.86,13.92,47.59359,-54.27349
2023-10-29 11:24:00+00:00,297.0,5.85,301.0,7.69,13.92,47.59359,-54.27349
2023-10-29 11:34:00+00:00,294.0,7.32,301.0,9.36,13.92,47.59359,-54.27349
2023-10-29 11:44:00+00:00,289.0,6.78,287.0,8.34,13.92,47.59359,-54.27349
2023-10-29 11:54:00+00:00,293.0,5.92,294.0,7.07,13.92,47.59359,-54.27349
2023-10-29 12:04:00+00:00,278.0,6.02,281.0,6.92,13.92,47.59359,-54.27349
2023-10-29 12:14:00+00:00,266.0,6.36,266.0,7.42,13.37,47.59359,-54.27349
2023-10-29 12:24:00+00:00,287.0,7.82,287.0,8.85,13.37,47.59359,-54.27349
2023-10-29 12:34:00+00:00,286.0,9.25,289.0,13.5,13.37,47.59359,-54.27349
2023-10-29 12:44:00+00:00,297.0,7.91,298.0,8.97,13.37,47.59359,-54.27349
2023-10-29 12:54:00+00:00,289.0,6.62,286.0,7.64,13.37,47.59359,-54.27349
2023-10-29 13:04:00+00:00,296.0,7.41,305.0,9.2,13.37,47.59359,-54.27349
2023-10-29 13:14:01+00:00,300.0,8.62,294.0,9.57,14.4,47.59359,-54.27349
2023-10-29 13:24:01+00:00,283.0,10.95,284.0,13.34,14.4,47.59359,-54.27349
2023-10-29 13:34:01+00:00,288.0,7.44,291.0,9.38,14.4,47.59359,-54.27349
2023-10-29 13:44:01+00:00,291.0,7.75,287.0,9.6,14.4,47.59359,-54.27349
2023-10-29 13:54:01+00:00,286.0,11.09,280.0,14.42,14.4,47.59359,-54.27349
2023-10-29 14:04:01+00:00,296.0,9.94,284.0,13.15,14.4,47.59359,-54.27349
2023-10-29 14:14:00+00:00,306.0,10.25,303.0,12.06,14.48,47.59359,-54.27349
2023-10-29 14:24:00+00:00,293.0,11.37,295.0,14.36,14.48,47.59359,-54.27349
2023-10-29 14:34:00+00:00,290.0,11.92,299.0,14.1,14.48,47.59359,-54.27349
2023-10-29 14:44:00+00:00,292.0,11.58,292.0,14.24,14.48,47.59359,-54.27349
2023-10-29 14:54:00+00:00,285.0,11.03,276.0,13.83,14.48,47.59359,-54.27349
2023-10-29 15:04:00+00:00,297.0,11.89,302.0,15.1,14.48,47.59359,-54.27349
2023-10-29 15:14:00+00:00,310.0,9.39,311.0,10.93,13.84,47.59359,-54.27349
2023-10-29 15:24:00+00:00,310.0,7.85,311.0,10.41,13.84,47.59359,-54.27349
2023-10-29 15:34:00+00:00,281.0,10.07,282.0,13.75,13.84,47.59359,-54.27349
2023-10-29 15:44:00+00:00,289.0,12.31,284.0,14.56,13.84,47.59359,-54.27349
2023-10-29 15:54:00+00:00,284.0,7.4,294.0,9.07,13.84,47.59359,-54.27349
2023-10-29 16:04:00+00:00,295.0,8.75,304.0,10.45,13.84,47.59359,-54.27349
2023-10-29 16:14:01+00:00,299.0,10.81,296.0,14.95,14.24,47.59359,-54.27349
2023-10-29 16:24:01+00:00,307.0,8.61,306.0,9.8,14.24,47.59359,-54.27349
2023-10-29 16:34:01+00:00,297.0,7.03,300.0,8.88,14.24,47.59359,-54.27349
2023-10-29 16:44:01+00:00,294.0,11.62,302.0,14.04,14.24,47.59359,-54.27349
2023-10-29 16:54:01+00:00,284.0,12.82,280.0,14.65,14.24,47.59359,-54.27349
2023-10-29 17:04:01+00:00,287.0,12.54,285.0,13.96,14.24,47.59359,-54.27349
2023-10-29 17:14:00+00:00,287.0,12.28,286.0,14.2,14.32,47.59359,-54.27349
2023-10-29 17:24:00+00:00,299.0,13.24,304.0,14.84,14.32,47.59359,-54.27349
2023-10-29 17:34:00+00:00,280.0,11.94,281.0,13.76,14.32,47.59359,-54.27349
2023-10-29 17:44:00+00:00,308.0,11.93,317.0,15.37,14.32,47.59359,-54.27349
2023-10-29 17:54:00+00:00,301.0,13.19,304.0,15.31,14.32,47.59359,-54.27349
2023-10-29 18:04:00+00:00,303.0,14.23,306.0,15.72,14.32,47.59359,-54.27349
2023-10-29 18:14:00+00:00,296.0,12.49,296.0,13.71,13.92,47.59359,-54.27349
2023-10-29 18:24:00+00:00,291.0,13.06,299.0,14.87,13.92,47.59359,-54.27349
2023-10-29 18:34:00+00:00,286.0,13.19,282.0,15.57,13.92,47.59359,-54.27349
2023-10-29 18:44:00+00:00,291.0,11.06,289.0,12.61,13.92,47.59359,-54.27349
2023-10-29 18:54:00+00:00,292.0,12.13,294.0,14.16,13.92,47.59359,-54.27349
2023-10-29 19:04:00+00:00,290.0,12.63,297.0,14.66,13.92,47.59359,-54.27349
2023-10-29 19:14:01+00:00,282.0,11.96,283.0,13.13,13.53,47.59359,-54.27349
2023-10-29 19:24:01+00:00,296.0,12.21,303.0,14.14,13.53,47.59359,-54.27349
2023-10-29 19:34:01+00:00,293.0,8.2,294.0,9.4,13.53,47.59359,-54.27349
2023-10-29 19:44:01+00:00,288.0,9.29,280.0,13.66,13.53,47.59359,-54.27349
2023-10-29 19:54:01+00:00,280.0,7.61,278.0,9.59,13.53,47.59359,-54.27349
2023-10-29 20:04:01+00:00,276.0,9.6,274.0,13.83,13.53,47.59359,-54.27349
2023-10-29 20:14:00+00:00,291.0,7.92,290.0,12.2,13.13,47.59359,-54.27349
2023-10-29 20:24:00+00:00,303.0,8.67,308.0,10.08,13.13,47.59359,-54.27349
2023-10-29 20:34:00+00:00,280.0,6.79,284.0,8.26,13.13,47.59359,-54.27349
2023-10-29 20:44:00+00:00,287.0,7.73,286.0,8.5,13.13,47.59359,-54.27349
2023-10-29 20:54:00+00:00,282.0,8.77,284.0,14.28,13.13,47.59359,-54.27349
2023-10-29 21:04:00+00:00,278.0,7.7,276.0,11.83,13.13,47.59359,-54.27349
2023-10-29 21:14:00+00:00,275.0,12.53,275.0,14.57,12.57,47.59359,-54.27349
2023-10-29 21:24:00+00:00,282.0,10.23,282.0,14.81,12.57,47.59359,-54.27349
2023-10-29 21:34:00+00:00,286.0,11.16,284.0,13.89,12.57,47.59359,-54.27349
2023-10-29 21:44:00+00:00,281.0,11.4,282.0,14.74,12.57,47.59359,-54.27349
2023-10-29 21:54:00+00:00,283.0,8.72,280.0,13.9,12.57,47.59359,-54.27349
2023-10-29 22:04:00+00:00,276.0,9.28,279.0,13.56,12.57,47.59359,-54.27349
2023-10-29 22:14:00+00:00,276.0,9.8,273.0,13.98,12.49,47.59359,-54.27349
2023-10-29 22:24:00+00:00,278.0,10.89,274.0,14.35,12.49,47.59359,-54.27349
2023-10-29 22:34:00+00:00,276.0,12.22,274.0,14.56,12.49,47.59359,-54.27349
2023-10-29 22:44:00+00:00,278.0,10.88,275.0,14.06,12.49,47.59359,-54.27349
2023-10-29 22:54:00+00:00,280.0,10.16,284.0,14.04,12.49,47.59359,-54.27349
2023-10-29 23:04:00+00:00,282.0,9.42,272.0,13.77,12.49,47.59359,-54.27349
2023-10-29 23:14:00+00:00,285.0,9.7,279.0,13.59,12.41,47.59359,-54.27349
2023-10-29 23:24:00+00:00,280.0,9.83,266.0,13.45,12.41,47.59359,-54.27349
2023-10-29 23:34:00+00:00,282.0,10.76,276.0,13.5,12.41,47.59359,-54.27349
2023-10-29 23:44:00+00:00,296.0,8.51,288.0,9.95,12.41,47.59359,-54.27349
2023-10-29 23:54:00+00:00,284.0,9.79,279.0,13.73,12.41,47.59359,-54.27349
